Regional Weather Roundup
Issued by NWS

Home | Current Version | Previous Version | Graphics & Text | Print | Product List | Glossary On
Versions: 1 2 3 4 5 6 7 8 9 10 11 12 13 14 15 16 17 18 19 20 21 22 23 24 25 26 27 28 29 30 31 32 33 34 35 36 37 38 39 40 41 42 43 44 45 46 47 48 49 50
178
ASUS44 KJAN 280210
RWRMS

MISSISSIPPI HOURLY WEATHER ROUNDUP
NATIONAL WEATHER SERVICE JACKSON MS
800 PM CST THU NOV 27 2014

NOTE: "FAIR: INDICATES FEW OR NO CLOUDS BELOW 12,000 FEET WITH NO
SIGNIFICANT WEATHER AND/OR OBSTRUCTIONS TO VISIBILITY.

MSZ001>002-007>008-010>013-018>021-025>028-034>036-280300-
NORTHWEST MISSISSIPPI

CITY           SKY/WX    TMP DP  RH WIND       PRES   REMARKS
CLARKSDALE     FAIR      36  34  93 CALM      30.50R
CLEVELAND      FAIR      36  32  86 CALM      30.48S
GREENWOOD      CLEAR     32  29  88 CALM      30.48S
GREENVILLE     CLEAR     36  31  82 CALM      30.48S
GRENADA        FAIR      32  30  93 CALM      30.49S
OLIVE BRANCH   CLEAR     32  32 100 CALM      30.48S
OXFORD         FAIR      30  27  86 CALM      30.49S
TUNICA         CLEAR     36  32  87 CALM      30.49F
$$

MSZ003>006-009-014>017-022>024-029>033-037>039-280300-
NORTHEAST MISSISSIPPI

CITY           SKY/WX    TMP DP  RH WIND       PRES   REMARKS
COLUMBUS AFB   CLEAR     31  28  90 CALM      30.48S
CORINTH        FAIR      32  27  80 CALM      30.49R
GOLDN TRIANGLE CLEAR     32  28  86 CALM      30.46S
STARKVILLE       N/A     30  30 100 CALM      30.47F
TUPELO         CLEAR     34  27  75 N3        30.48S
$$

MSZ040-058-280300-
CENTRAL MISSISSIPPI

CITY           SKY/WX    TMP DP  RH WIND       PRES   REMARKS
JACKSON INTL   CLEAR     37  30  75 N3        30.47R
JACKSON HAWKNS CLEAR     39  30  70 N3        30.47S
MERIDIAN KEY   CLEAR     35  30  82 CALM      30.47S
MERIDIAN NAS   CLEAR     37  31  78 CALM      30.47F
RAYMOND        FAIR      34  30  86 MISG      30.48S
VICKSBURG      CLEAR     37  31  78 N3        30.49S
$$

MSZ059>079-280300-
SOUTH MISSISSIPPI

CITY           SKY/WX    TMP DP  RH WIND       PRES   REMARKS
BROOKHAVEN     FAIR      37  32  81 CALM      30.47S
HATTIESBURG    CLEAR     41  34  76 CALM      30.46S
MCCOMB         CLEAR     45  29  53 N6        30.44S
NATCHEZ        CLEAR     39  30  70 CALM      30.47S
PINE BELT      CLEAR     39  28  65 N6        30.46S WCI  35
$$

MSZ080>082-280300-
COASTAL MISSISSIPPI

CITY           SKY/WX    TMP DP  RH WIND       PRES   REMARKS
BAY ST LOUIS   CLEAR     39  32  75 MISG      30.45R
BILOXI         CLEAR     47  33  58 CALM      30.44R
PASCAGOULA     CLEAR     43  32  65 N3        30.44R
GULFPORT       CLEAR     45  34  65 N3        30.44R
$$



USA.gov is the U.S. government's official web portal to all federal, state and local government web resources and services.